Regional Weather Roundup
Issued by NWS Upton, NY

Current Version | Previous Version | Graphics & Text | Print | Product List | Glossary Off
Versions: 1 2 3 4 5 6 7 8 9 10 11 12 13 14 15 16 17 18 19 20 21 22 23 24 25 26 27 28 29 30 31 32 33 34 35 36 37 38 39 40 41 42 43 44 45 46 47 48 49 50

000
ASUS41 KOKX 251005
RWROKX

REGIONAL WEATHER ROUNDUP
NATIONAL WEATHER SERVICE NEW YORK NY
500 AM EST SUN JAN 25 2015

NOTE: "FAIR" INDICATES FEW OR NO CLOUDS BELOW 12,000 FEET WITH NO
SIGNIFICANT WEATHER AND/OR OBSTRUCTIONS TO VISIBILITY.

NYZ071-072-176-178-NJZ106-104-251100-
NEW YORK CITY METRO AREA


CITY           SKY/WX    TMP DP  RH WIND       PRES   REMARKS
CENTRAL PARK   CLEAR     34  24  67 VRB6      29.62R WCI  29
LAGUARDIA APRT PTCLDY    35  25  66 W16G22    29.60R WCI  25
KENNEDY INTL   PTCLDY    34  25  69 W17       29.62R WCI  23
NEWARK/LIBERTY PTCLDY    33  25  72 W12       29.61R WCI  24
BRNX BOT. GARD   N/A    N/A N/A N/A SW10      29.60R
TETERBORO      CLEAR     34  24  67 W9        29.60R WCI  27
$$

NYZ177-179-078>081-251100-
LONG ISLAND NEW YORK

CITY           SKY/WX    TMP DP  RH WIND       PRES   REMARKS
FARMINGDALE    CLEAR     34  25  69 W10       29.59R WCI  26
ISLIP          CLEAR     33  25  72 W9        29.56R WCI  25
SHIRLEY        PTCLDY    34  26  72 W8        29.58R WCI  27
WESTHAMPTON    PTCLDY    33  26  75 W12       29.57R WCI  24
MONTAUK POINT    N/A     37  28  70 W13G21    29.54R WCI  29
$$

NYZ052-065-067-251100-
HUDSON VALLEY

CITY           SKY/WX    TMP DP  RH WIND       PRES   REMARKS
WHITE PLAINS   PTCLDY    33  24  69 W9G17     29.55R WCI  25
NEWBURGH       CLOUDY    32  27  80 NW12      29.57R WCI  23
MONTGOMERY     MOCLDY    34  25  69 SW7       29.54R WCI  28
POUGHKEEPSIE   PTCLDY    34  25  69 SW12      29.54R WCI  25
ALBANY         FLURRIES  34  27  75 S6        29.49R WCI  29
$$

NJZ001-105-106-008-010-013-015-019>022-104-251100-
NEW JERSEY

CITY           SKY/WX    TMP DP  RH WIND       PRES   REMARKS
NEWARK/LIBERTY PTCLDY    33  25  72 W12       29.61R WCI  24
TETERBORO      CLEAR     34  24  67 W9        29.60R WCI  27
CALDWELL       MOCLDY    33  24  69 SW3       29.59S
MORRISTOWN     PTCLDY    34  25  69 SW5       29.61R WCI  30
SOMERVILLE     CLEAR     34  24  67 VRB3      29.61R
SUSSEX         CLOUDY    32  24  72 SW8       29.57R WCI  25
ANDOVER          N/A     31  24  75 VRB5      29.60R WCI  26
TRENTON        PTCLDY    32  24  72 W6        29.65R WCI  26
MILLVILLE      CLEAR     31  27  85 W7        29.71R WCI  24
ATLANTIC CITY  CLEAR     33  27  78 W9        29.69R WCI  25
WRIGHTSTOWN    CLEAR     33  26  77 W9        29.65R WCI  25
TOMS RIVER     CLEAR     30  27  86 CALM      29.65R
BELMAR         CLEAR     34  21  60 W8        29.64R WCI  27
$$

PAZ047>061-062-071-251100-
EASTERN PENNSYLVANIA

CITY           SKY/WX    TMP DP  RH WIND       PRES   REMARKS
PHILADELPHIA   PTCLDY    34  27  75 SW10      29.70R WCI  26
ALLENTOWN      PTCLDY    35  25  66 W9        29.64R WCI  28
SCRANTON       CLOUDY    32  25  75 SW13      29.58R WCI  22
$$

CTZ002-004>006-009-010-012-RIZ004-006-007-MAZ004-011-015-251100-
SOUTHERN NEW ENGLAND
 IN CT

CITY           SKY/WX    TMP DP  RH WIND       PRES   REMARKS
BRADLEY INTL   CLOUDY    32  24  72 SW9       29.51R WCI  24
HARTFORD       MOCLDY    28  25  88 CALM      29.53R
DANBURY        PTCLDY    32  23  69 W9        29.54S WCI  24
WTRBRY/OXFORD  PTCLDY    30  21  69 W5        29.51R WCI  25
BRIDGEPORT     PTCLDY    34  27  75 SW8       29.56R WCI  27
MERIDEN        PTCLDY    32  24  72 VRB3      29.53R
NEW HAVEN      PTCLDY    35  26  69 W6        29.54R WCI  30
CHESTER        FAIR      32  27  80 W5        29.53R WCI  27
GROTON         CLOUDY    31  25  78 W8        29.52R WCI  23
WILLIMANTIC    CLEAR     30  23  75 VRB5      29.51R WCI  25

 IN RI

CITY           SKY/WX    TMP DP  RH WIND       PRES   REMARKS
PROVIDENCE     MOCLDY    32  25  75 W16       29.48R WCI  21
BLOCK ISLAND   CLOUDY    36  25  64 W12G24    29.51R WCI  27
WESTERLY       CLOUDY    32  25  75 W5        29.52R WCI  27

 IN MA

CITY           SKY/WX    TMP DP  RH WIND       PRES   REMARKS
BOSTON         MOCLDY    32  26  78 W13G23    29.44R WCI  22
WORCESTER      MOCLDY    28  25  88 W16       29.43R WCI  16
WESTFIELD      CLOUDY    32  25  75 S8        29.48R WCI  25
PROVINCETOWN   CLOUDY    34  27  75 W17G25    29.44R WCI  23
NANTUCKET      CLOUDY    34  27  75 W16G24    29.48R WCI  24
$$

ANZ330-335-338-340-345-350-353-355-251100-
COASTAL MARINE OBSERVATIONS


STATION/POSITION TIME  SKY/WX   TEMP    WIND        PRES    VSBY  WAVE
                                AIR SEA DIR/SP/G                  HT/PER
                 (UTC)          (F)     (DEG/KT/KT) (MB)    (MI)  (FT/S)
NY HARB ENTRANCE 1000            37 42  270/ 23/ 27 1002.2          5/11
4S FIRE IS       1000               39                N/A           6/13
20S FIRE ISLAND  0900               41              1001.6          7/13
23SW MTP         1000                                 N/A           9/12
HUDSON CANYON    NOT AVBL
EXECUTION ROCKS  1000            36 35  260/ 16/ 23   N/A
WESTERN LI SOUND 1000            36     240/ 16/ 19   N/A           1/ 3
CENTRAL LI SOUND 0900            36 37  270/ 17/ 21   N/A           3/ 4
EASTERN LI SOUND NOT AVBL
ROBBINS REEF     1000            35     270/ 18/ 23 1001.3
$$


>>>>>>>>>>>>>>>>>>>>>>>>>>>> KEY <<<<<<<<<<<<<<<<<<<<<<<<<<<
>                                                          <
>     SKY/WX - SKY CONDITION/PRESENT WEATHER               <
>     TMP    - TEMPERATURE IN FAHRENHEIT                   <
>     DP     - DEWPOINT IN FAHRENHEIT                      <
>     RH     - RELATIVE HUMIDITY IN PERCENT                <
>     WIND   - DIRECTION AND SPEED IN MPH                  <
>     PRES   - MEAN SEA LEVEL PRESSURE IN INCHES OF HG     <
>     WCI    - WIND CHILL INDEX                            <
>     VSB    - VISIBILITY IN MILES                         <
>     HX     - HEAT INDEX                                  <
>     TC     - TEMPERATURE IN CELSIUS                      <
>     VRB    - VARIABLE WIND DIRECTION                     <
>                                                          <
>>>>>>>>>>>>>>>>>>>>>>>>>>>> KEY <<<<<<<<<<<<<<<<<<<<<<<<<<<





USA.gov is the U.S. government's official web portal to all federal, state and local government web resources and services.